Location: Rounton
(54.4000°N, 1.3500°W)
Time: 21:48:46
(UTC+00:00)

Explorer 7 - Pass Details

Date: 06 December 2021
Orbit: 483 x 674 km, 50.3° (Epoch: 17 January)

Event Time Altitude Azimuth Distance (km) Brightness Sun altitude
Rises 08:39:07 0° 269° (W) 2,738 10.0 2.2°
Reaches altitude 10° 08:41:29 10° 262° (W) 1,809 9.1 2.5°
Maximum altitude 08:45:21 42° 192° (SSW) 757 8.0 2.8°
Drops below altitude 10° 08:49:02 10° 121° (ESE) 1,715 11.1 3.2°
Sets 08:51:14 0° 114° (ESE) 2,578 11.7 3.4°
